Year,Month,Day,Hour,Minute,Value (Times are PST for temperature in C)
2019,11,21,00,00,3.30
2019,11,21,00,01,3.30
2019,11,21,00,02,3.30
2019,11,21,00,03,3.30
2019,11,21,00,04,3.30
2019,11,21,00,05,3.30
2019,11,21,00,06,3.30
2019,11,21,00,07,3.20
2019,11,21,00,08,3.20
2019,11,21,00,09,3.20
2019,11,21,00,10,3.20
2019,11,21,00,11,3.20
2019,11,21,00,12,3.20
2019,11,21,00,13,3.20
2019,11,21,00,14,3.20
2019,11,21,00,15,3.20
2019,11,21,00,16,3.30
2019,11,21,00,17,3.30
2019,11,21,00,18,3.30
2019,11,21,00,19,3.30
2019,11,21,00,20,3.30
2019,11,21,00,21,3.20
2019,11,21,00,22,3.20
2019,11,21,00,23,3.20
2019,11,21,00,24,3.20
2019,11,21,00,25,3.20
2019,11,21,00,26,3.20
2019,11,21,00,27,3.20
2019,11,21,00,28,3.20
2019,11,21,00,29,3.20
2019,11,21,00,30,3.20
2019,11,21,00,31,3.20
2019,11,21,00,32,3.20
2019,11,21,00,33,3.20
2019,11,21,00,34,3.20
2019,11,21,00,35,3.20
2019,11,21,00,36,3.20
2019,11,21,00,37,3.30
2019,11,21,00,38,3.30
2019,11,21,00,39,3.30
2019,11,21,00,40,3.30
2019,11,21,00,41,3.30
2019,11,21,00,42,3.30
2019,11,21,00,43,3.30
2019,11,21,00,44,3.40
2019,11,21,00,45,3.40
2019,11,21,00,46,3.40
2019,11,21,00,47,3.40
2019,11,21,00,48,3.30
2019,11,21,00,49,3.30
2019,11,21,00,50,3.30
2019,11,21,00,51,3.30
2019,11,21,00,52,3.30
2019,11,21,00,53,3.30
2019,11,21,00,54,3.30
2019,11,21,00,55,3.30
2019,11,21,00,56,3.30
2019,11,21,00,57,3.30
2019,11,21,00,58,3.30
2019,11,21,00,59,3.30
2019,11,21,01,00,3.30
2019,11,21,01,01,3.30
2019,11,21,01,02,3.30
2019,11,21,01,03,3.20
2019,11,21,01,04,3.20
2019,11,21,01,05,3.20
2019,11,21,01,06,3.20
2019,11,21,01,07,3.20
2019,11,21,01,08,3.20
2019,11,21,01,09,3.20
2019,11,21,01,10,3.20
2019,11,21,01,11,3.20
2019,11,21,01,12,3.20
2019,11,21,01,13,3.20
2019,11,21,01,14,3.20
2019,11,21,01,15,3.20
2019,11,21,01,16,3.20
2019,11,21,01,17,3.20
2019,11,21,01,18,3.20
2019,11,21,01,19,3.10
2019,11,21,01,20,3.10
2019,11,21,01,21,3.10
2019,11,21,01,22,3.10
2019,11,21,01,23,3.10
2019,11,21,01,24,3.10
2019,11,21,01,25,3.10
2019,11,21,01,26,3.10
2019,11,21,01,27,3.10
2019,11,21,01,28,3.10
2019,11,21,01,29,3.20
2019,11,21,01,30,3.20
2019,11,21,01,31,3.20
2019,11,21,01,32,3.20
2019,11,21,01,33,3.30
2019,11,21,01,34,3.30
2019,11,21,01,35,3.30
2019,11,21,01,36,3.30
2019,11,21,01,37,3.30
2019,11,21,01,38,3.30
2019,11,21,01,39,3.30
2019,11,21,01,40,3.30
2019,11,21,01,41,3.30
2019,11,21,01,42,3.30
2019,11,21,01,43,3.30
2019,11,21,01,44,3.20
2019,11,21,01,45,3.20
2019,11,21,01,46,3.20
2019,11,21,01,47,3.20
2019,11,21,01,48,3.20
2019,11,21,01,49,3.10
2019,11,21,01,50,3.10
2019,11,21,01,51,3.10
2019,11,21,01,52,3.00
2019,11,21,01,53,3.00
2019,11,21,01,54,3.00
2019,11,21,01,55,2.90
2019,11,21,01,56,2.90
2019,11,21,01,57,2.90
2019,11,21,01,58,2.90
2019,11,21,01,59,2.80
2019,11,21,02,00,2.80
2019,11,21,02,01,2.90
2019,11,21,02,02,2.90
2019,11,21,02,03,2.90
2019,11,21,02,04,2.90
2019,11,21,02,05,2.90
2019,11,21,02,06,2.90
2019,11,21,02,07,2.90
2019,11,21,02,08,2.90
2019,11,21,02,09,2.90
2019,11,21,02,10,2.90
2019,11,21,02,11,3.00
2019,11,21,02,12,3.00
2019,11,21,02,13,3.00
2019,11,21,02,14,3.00
2019,11,21,02,15,3.00
2019,11,21,02,16,3.00
2019,11,21,02,17,3.00
2019,11,21,02,18,3.00
2019,11,21,02,19,3.00
2019,11,21,02,20,3.10
2019,11,21,02,21,3.10
2019,11,21,02,22,3.10
2019,11,21,02,23,3.10
2019,11,21,02,24,3.10
2019,11,21,02,25,3.10
2019,11,21,02,26,3.10
2019,11,21,02,27,3.10
2019,11,21,02,28,3.10
2019,11,21,02,29,3.10
2019,11,21,02,30,3.10
2019,11,21,02,31,3.10
2019,11,21,02,32,3.20
2019,11,21,02,33,3.20
2019,11,21,02,34,3.20
2019,11,21,02,35,3.20
2019,11,21,02,36,3.30
2019,11,21,02,37,3.30
2019,11,21,02,38,3.30
2019,11,21,02,39,3.30
2019,11,21,02,40,3.30
2019,11,21,02,41,3.30
2019,11,21,02,42,3.30
2019,11,21,02,43,3.30
2019,11,21,02,44,3.30
2019,11,21,02,45,3.40
2019,11,21,02,46,3.40
2019,11,21,02,47,3.40
2019,11,21,02,48,3.40
2019,11,21,02,49,3.40
2019,11,21,02,50,3.50
2019,11,21,02,51,3.50
2019,11,21,02,52,3.50
2019,11,21,02,53,3.50
2019,11,21,02,54,3.50
2019,11,21,02,55,3.40
2019,11,21,02,56,3.40
2019,11,21,02,57,3.40
2019,11,21,02,58,3.30
2019,11,21,02,59,3.30
2019,11,21,03,00,3.30
2019,11,21,03,01,3.30
2019,11,21,03,02,3.30
2019,11,21,03,03,3.20
2019,11,21,03,04,3.20
2019,11,21,03,05,3.20
2019,11,21,03,06,3.10
2019,11,21,03,07,3.10
2019,11,21,03,08,3.10
2019,11,21,03,09,3.10
2019,11,21,03,10,3.10
2019,11,21,03,11,3.10
2019,11,21,03,12,3.10
2019,11,21,03,13,3.00
2019,11,21,03,14,3.00
2019,11,21,03,15,3.00
2019,11,21,03,16,3.00
2019,11,21,03,17,2.90
2019,11,21,03,18,2.90
2019,11,21,03,19,2.90
2019,11,21,03,20,2.80
2019,11,21,03,21,2.80
2019,11,21,03,22,2.80
2019,11,21,03,23,2.80
2019,11,21,03,24,2.80
2019,11,21,03,25,2.80
2019,11,21,03,26,2.80
2019,11,21,03,27,2.90
2019,11,21,03,28,2.90
2019,11,21,03,29,2.90
2019,11,21,03,30,3.00
2019,11,21,03,31,3.00
2019,11,21,03,32,3.10
2019,11,21,03,33,3.10
2019,11,21,03,34,3.20
2019,11,21,03,35,3.20
2019,11,21,03,36,3.30
2019,11,21,03,37,3.30
2019,11,21,03,38,3.30
2019,11,21,03,39,3.40
2019,11,21,03,40,3.40
2019,11,21,03,41,3.50
2019,11,21,03,42,3.60
2019,11,21,03,43,3.60
2019,11,21,03,44,3.60
2019,11,21,03,45,3.60
2019,11,21,03,46,3.70
2019,11,21,03,47,3.70
2019,11,21,03,48,3.70
2019,11,21,03,49,3.80
2019,11,21,03,50,3.80
2019,11,21,03,51,3.80
2019,11,21,03,52,3.80
2019,11,21,03,53,3.80
2019,11,21,03,54,3.80
2019,11,21,03,55,3.80
2019,11,21,03,56,3.80
2019,11,21,03,57,3.80
2019,11,21,03,58,3.80
2019,11,21,03,59,3.80
2019,11,21,04,00,3.90
2019,11,21,04,01,3.90
2019,11,21,04,02,3.90
2019,11,21,04,03,3.90
2019,11,21,04,04,3.90
2019,11,21,04,05,3.90
2019,11,21,04,06,3.90
2019,11,21,04,07,3.90
2019,11,21,04,08,3.90
2019,11,21,04,09,3.90
2019,11,21,04,10,3.90
2019,11,21,04,11,3.90
2019,11,21,04,12,3.90
2019,11,21,04,13,3.90
2019,11,21,04,14,3.90
2019,11,21,04,15,3.90
2019,11,21,04,16,3.80
2019,11,21,04,17,3.90
2019,11,21,04,18,3.90
2019,11,21,04,19,3.90
2019,11,21,04,20,3.90
2019,11,21,04,21,3.90
2019,11,21,04,22,3.80
2019,11,21,04,23,3.80
2019,11,21,04,24,3.80
2019,11,21,04,25,3.80
2019,11,21,04,26,3.80
2019,11,21,04,27,3.80
2019,11,21,04,28,3.80
2019,11,21,04,29,3.80
2019,11,21,04,30,3.70
2019,11,21,04,31,3.70
2019,11,21,04,32,3.70
2019,11,21,04,33,3.60
2019,11,21,04,34,3.60
2019,11,21,04,35,3.60
2019,11,21,04,36,3.60
2019,11,21,04,37,3.60
2019,11,21,04,38,3.60
2019,11,21,04,39,3.60
2019,11,21,04,40,3.60
2019,11,21,04,41,3.60
2019,11,21,04,42,3.60
2019,11,21,04,43,3.60
2019,11,21,04,44,3.60
2019,11,21,04,45,3.60
2019,11,21,04,46,3.60
2019,11,21,04,47,3.60
2019,11,21,04,48,3.50
2019,11,21,04,49,3.50
2019,11,21,04,50,3.50
2019,11,21,04,51,3.50
2019,11,21,04,52,3.50
2019,11,21,04,53,3.50
2019,11,21,04,54,3.60
2019,11,21,04,55,3.60
2019,11,21,04,56,3.60
2019,11,21,04,57,3.60
2019,11,21,04,58,3.60
2019,11,21,04,59,3.60
2019,11,21,05,00,3.60
2019,11,21,05,01,3.70
2019,11,21,05,02,3.70
2019,11,21,05,03,3.60
2019,11,21,05,04,3.60
2019,11,21,05,05,3.60
2019,11,21,05,06,3.60
2019,11,21,05,07,3.60
2019,11,21,05,08,3.60
2019,11,21,05,09,3.50
2019,11,21,05,10,3.50
2019,11,21,05,11,3.40
2019,11,21,05,12,3.40
2019,11,21,05,13,3.40
2019,11,21,05,14,3.30
2019,11,21,05,15,3.30
2019,11,21,05,16,3.30
2019,11,21,05,17,3.30
2019,11,21,05,18,3.20
2019,11,21,05,19,3.20
2019,11,21,05,20,3.20
2019,11,21,05,21,3.20
2019,11,21,05,22,3.20
2019,11,21,05,23,3.20
2019,11,21,05,24,3.20
2019,11,21,05,25,3.20
2019,11,21,05,26,3.30
2019,11,21,05,27,3.30
2019,11,21,05,28,3.30
2019,11,21,05,29,3.30
2019,11,21,05,30,3.30
2019,11,21,05,31,3.30
2019,11,21,05,32,3.40
2019,11,21,05,33,3.40
2019,11,21,05,34,3.40
2019,11,21,05,35,3.40
2019,11,21,05,36,3.40
2019,11,21,05,37,3.40
2019,11,21,05,38,3.40
2019,11,21,05,39,3.40
2019,11,21,05,40,3.40
2019,11,21,05,41,3.40
2019,11,21,05,42,3.40
2019,11,21,05,43,3.40
2019,11,21,05,44,3.50
2019,11,21,05,45,3.50
2019,11,21,05,46,3.60
2019,11,21,05,47,3.60
2019,11,21,05,48,3.70
2019,11,21,05,49,3.70
2019,11,21,05,50,3.80
2019,11,21,05,51,3.80
2019,11,21,05,52,3.80
2019,11,21,05,53,3.80
2019,11,21,05,54,3.90
2019,11,21,05,55,3.90
2019,11,21,05,56,3.90
2019,11,21,05,57,3.90
2019,11,21,05,58,3.90
2019,11,21,05,59,3.90
2019,11,21,06,00,3.90
2019,11,21,06,01,3.90
2019,11,21,06,02,3.90
2019,11,21,06,03,3.90
2019,11,21,06,04,3.80
2019,11,21,06,05,3.80
2019,11,21,06,06,3.80
2019,11,21,06,07,3.80
2019,11,21,06,08,3.80
2019,11,21,06,09,3.80
2019,11,21,06,10,3.70
2019,11,21,06,11,3.70
2019,11,21,06,12,3.70
2019,11,21,06,13,3.70
2019,11,21,06,14,3.70
2019,11,21,06,15,3.70
2019,11,21,06,16,3.70
2019,11,21,06,17,3.60
2019,11,21,06,18,3.60
2019,11,21,06,19,3.60
2019,11,21,06,20,3.60
2019,11,21,06,21,3.60
2019,11,21,06,22,3.60
2019,11,21,06,23,3.60
2019,11,21,06,24,3.60
2019,11,21,06,25,3.60
2019,11,21,06,26,3.60
2019,11,21,06,27,3.60
2019,11,21,06,28,3.60
2019,11,21,06,29,3.60
2019,11,21,06,30,3.60
2019,11,21,06,31,3.60
2019,11,21,06,32,3.60
2019,11,21,06,33,3.60
2019,11,21,06,34,3.60
2019,11,21,06,35,3.60
2019,11,21,06,36,3.60
2019,11,21,06,37,3.60
2019,11,21,06,38,3.60
2019,11,21,06,39,3.60
2019,11,21,06,40,3.60
2019,11,21,06,41,3.60
2019,11,21,06,42,3.60
2019,11,21,06,43,3.60
2019,11,21,06,44,3.60
2019,11,21,06,45,3.60
2019,11,21,06,46,3.60
2019,11,21,06,47,3.60
2019,11,21,06,48,3.60
2019,11,21,06,49,3.60
2019,11,21,06,50,3.60
2019,11,21,06,51,3.60
2019,11,21,06,52,3.50
2019,11,21,06,53,3.50
2019,11,21,06,54,3.50
2019,11,21,06,55,3.50
2019,11,21,06,56,3.50
2019,11,21,06,57,3.40
2019,11,21,06,58,3.40
2019,11,21,06,59,3.40
2019,11,21,07,00,3.40
2019,11,21,07,01,3.30
2019,11,21,07,02,3.30
2019,11,21,07,03,3.30
2019,11,21,07,04,3.30
2019,11,21,07,05,3.30
2019,11,21,07,06,3.30
2019,11,21,07,07,3.30
2019,11,21,07,08,3.30
2019,11,21,07,09,3.30
2019,11,21,07,10,3.30
2019,11,21,07,11,3.30
2019,11,21,07,12,3.30
2019,11,21,07,13,3.30
2019,11,21,07,14,3.30
2019,11,21,07,15,3.30
2019,11,21,07,16,3.30
2019,11,21,07,17,3.20
2019,11,21,07,18,3.20
2019,11,21,07,19,3.20
2019,11,21,07,20,3.20
2019,11,21,07,21,3.20
2019,11,21,07,22,3.20
2019,11,21,07,23,3.20
2019,11,21,07,24,3.20
2019,11,21,07,25,3.10
2019,11,21,07,26,3.10
2019,11,21,07,27,3.10
2019,11,21,07,28,3.10
2019,11,21,07,29,3.10
2019,11,21,07,30,3.10
2019,11,21,07,31,3.20
2019,11,21,07,32,3.20
2019,11,21,07,33,3.20
2019,11,21,07,34,3.20
2019,11,21,07,35,3.20
2019,11,21,07,36,3.20
2019,11,21,07,37,3.20
2019,11,21,07,38,3.30
2019,11,21,07,39,3.30
2019,11,21,07,40,3.30
2019,11,21,07,41,3.30
2019,11,21,07,42,3.30
2019,11,21,07,43,3.30
2019,11,21,07,44,3.30
2019,11,21,07,45,3.30
2019,11,21,07,46,3.40
2019,11,21,07,47,3.40
2019,11,21,07,48,3.40
2019,11,21,07,49,3.40
2019,11,21,07,50,3.40
2019,11,21,07,51,3.40
2019,11,21,07,52,3.40
2019,11,21,07,53,3.40
2019,11,21,07,54,3.40
2019,11,21,07,55,3.40
2019,11,21,07,56,3.40
2019,11,21,07,57,3.40
2019,11,21,07,58,3.40
2019,11,21,07,59,3.40
2019,11,21,08,00,3.40
2019,11,21,08,01,3.40
2019,11,21,08,02,3.40
2019,11,21,08,03,3.40
2019,11,21,08,04,3.40
2019,11,21,08,05,3.40
2019,11,21,08,06,3.50
2019,11,21,08,07,3.50
2019,11,21,08,08,3.50
2019,11,21,08,09,3.60
2019,11,21,08,10,3.60
2019,11,21,08,11,3.70
2019,11,21,08,12,3.70
2019,11,21,08,13,3.80
2019,11,21,08,14,3.80
2019,11,21,08,15,3.90
2019,11,21,08,16,3.90
2019,11,21,08,17,3.90
2019,11,21,08,18,4.00
2019,11,21,08,19,4.10
2019,11,21,08,20,4.10
2019,11,21,08,21,4.10
2019,11,21,08,22,4.20
2019,11,21,08,23,4.20
2019,11,21,08,24,4.20
2019,11,21,08,25,4.30
2019,11,21,08,26,4.30
2019,11,21,08,27,4.30
2019,11,21,08,28,4.30
2019,11,21,08,29,4.30
2019,11,21,08,30,4.30
2019,11,21,08,31,4.30
2019,11,21,08,32,4.30
2019,11,21,08,33,4.30
2019,11,21,08,34,4.30
2019,11,21,08,35,4.30
2019,11,21,08,36,4.30
2019,11,21,08,37,4.40
2019,11,21,08,38,4.40
2019,11,21,08,39,4.40
2019,11,21,08,40,4.50
2019,11,21,08,41,4.50
2019,11,21,08,42,4.50
2019,11,21,08,43,4.50
2019,11,21,08,44,4.50
2019,11,21,08,45,4.60
2019,11,21,08,46,4.60
2019,11,21,08,47,4.60
2019,11,21,08,48,4.60
2019,11,21,08,49,4.70
2019,11,21,08,50,4.80
2019,11,21,08,51,4.80
2019,11,21,08,52,4.90
2019,11,21,08,53,4.90
2019,11,21,08,54,5.00
2019,11,21,08,55,5.00
2019,11,21,08,56,5.10
2019,11,21,08,57,5.10
2019,11,21,08,58,5.20
2019,11,21,08,59,5.20
2019,11,21,09,00,5.20
2019,11,21,09,01,5.20
2019,11,21,09,02,5.20
2019,11,21,09,03,5.30
2019,11,21,09,04,5.30
2019,11,21,09,05,5.30
2019,11,21,09,06,5.30
2019,11,21,09,07,5.40
2019,11,21,09,08,5.40
2019,11,21,09,09,5.50
2019,11,21,09,10,5.50
2019,11,21,09,11,5.60
2019,11,21,09,12,5.60
2019,11,21,09,13,5.60
2019,11,21,09,14,5.60
2019,11,21,09,15,5.60
2019,11,21,09,16,5.60
2019,11,21,09,17,5.70
2019,11,21,09,18,5.70
2019,11,21,09,19,5.70
2019,11,21,09,20,5.70
2019,11,21,09,21,5.70
2019,11,21,09,22,5.70
2019,11,21,09,23,5.70
2019,11,21,09,24,5.70
2019,11,21,09,25,5.70
2019,11,21,09,26,5.70
2019,11,21,09,27,5.80
2019,11,21,09,28,5.80
2019,11,21,09,29,5.80
2019,11,21,09,30,5.80
2019,11,21,09,31,5.80
2019,11,21,09,32,5.80
2019,11,21,09,33,5.80
2019,11,21,09,34,5.80
2019,11,21,09,35,5.80
2019,11,21,09,36,5.90
2019,11,21,09,37,5.90
2019,11,21,09,38,5.90
2019,11,21,09,39,5.90
2019,11,21,09,40,5.90
2019,11,21,09,41,5.90
2019,11,21,09,42,5.90
2019,11,21,09,43,5.90
2019,11,21,09,44,6.00
2019,11,21,09,45,6.00
2019,11,21,09,46,6.00
2019,11,21,09,47,6.00
2019,11,21,09,48,6.00
2019,11,21,09,49,6.10
2019,11,21,09,50,6.10
2019,11,21,09,51,6.10
2019,11,21,09,52,6.10
2019,11,21,09,53,6.10
2019,11,21,09,54,6.10
2019,11,21,09,55,6.10
2019,11,21,09,56,6.20
2019,11,21,09,57,6.20
2019,11,21,09,58,6.20
2019,11,21,09,59,6.20
2019,11,21,10,00,6.30
2019,11,21,10,01,6.30
2019,11,21,10,02,6.30
2019,11,21,10,03,6.30
2019,11,21,10,04,6.40
2019,11,21,10,05,6.40
2019,11,21,10,06,6.40
2019,11,21,10,07,6.40
2019,11,21,10,08,6.40
2019,11,21,10,09,6.40
2019,11,21,10,10,6.50
2019,11,21,10,11,6.50
2019,11,21,10,12,6.50
2019,11,21,10,13,6.50
2019,11,21,10,14,6.60
2019,11,21,10,15,6.60
2019,11,21,10,16,6.60
2019,11,21,10,17,6.60
2019,11,21,10,18,6.60
2019,11,21,10,19,6.70
2019,11,21,10,20,6.70
2019,11,21,10,21,6.70
2019,11,21,10,22,6.70
2019,11,21,10,23,6.70
2019,11,21,10,24,6.80
2019,11,21,10,25,6.80
2019,11,21,10,26,6.80
2019,11,21,10,27,6.80
2019,11,21,10,28,6.80
2019,11,21,10,29,6.80
2019,11,21,10,30,6.80
2019,11,21,10,31,6.80
2019,11,21,10,32,6.80
2019,11,21,10,33,6.80
2019,11,21,10,34,6.80
2019,11,21,10,35,6.80
2019,11,21,10,36,6.90
2019,11,21,10,37,6.90
2019,11,21,10,38,6.90
2019,11,21,10,39,6.90
2019,11,21,10,40,6.90
2019,11,21,10,41,6.90
2019,11,21,10,42,6.90
2019,11,21,10,43,7.00
2019,11,21,10,44,7.00
2019,11,21,10,45,7.00
2019,11,21,10,46,7.00
2019,11,21,10,47,7.10
2019,11,21,10,48,7.10
2019,11,21,10,49,7.10
2019,11,21,10,50,7.10
2019,11,21,10,51,7.20
2019,11,21,10,52,7.20
2019,11,21,10,53,7.20
2019,11,21,10,54,7.20
2019,11,21,10,55,7.20
2019,11,21,10,56,7.30
2019,11,21,10,57,7.30
2019,11,21,10,58,7.30
2019,11,21,10,59,7.30
2019,11,21,11,00,7.30
2019,11,21,11,01,7.30
2019,11,21,11,02,7.40
2019,11,21,11,03,7.40
2019,11,21,11,04,7.40
2019,11,21,11,05,7.50
2019,11,21,11,06,7.50
2019,11,21,11,07,7.50
2019,11,21,11,08,7.60
2019,11,21,11,09,7.60
2019,11,21,11,10,7.60
2019,11,21,11,11,7.70
2019,11,21,11,12,7.70
2019,11,21,11,13,7.70
2019,11,21,11,14,7.70
2019,11,21,11,15,7.70
2019,11,21,11,16,7.70
2019,11,21,11,17,7.70
2019,11,21,11,18,7.80
2019,11,21,11,19,7.80
2019,11,21,11,20,7.80
2019,11,21,11,21,7.80
2019,11,21,11,22,7.80
2019,11,21,11,23,7.80
2019,11,21,11,24,7.80
2019,11,21,11,25,7.90
2019,11,21,11,26,7.90
2019,11,21,11,27,7.90
2019,11,21,11,28,7.90
2019,11,21,11,29,7.90
2019,11,21,11,30,7.90
2019,11,21,11,31,7.90
2019,11,21,11,32,7.90
2019,11,21,11,33,7.90
2019,11,21,11,34,8.00
2019,11,21,11,35,8.00
2019,11,21,11,36,8.00
2019,11,21,11,37,8.00
2019,11,21,11,38,8.00
2019,11,21,11,39,8.00
2019,11,21,11,40,8.00
2019,11,21,11,41,8.00
2019,11,21,11,42,8.00
2019,11,21,11,43,8.10
2019,11,21,11,44,8.10
2019,11,21,11,45,8.20
2019,11,21,11,46,8.20
2019,11,21,11,47,8.20
2019,11,21,11,48,8.20
2019,11,21,11,49,8.20
2019,11,21,11,50,8.30
2019,11,21,11,51,8.30
2019,11,21,11,52,8.30
2019,11,21,11,53,8.30
2019,11,21,11,54,8.30
2019,11,21,11,55,8.30
2019,11,21,11,56,8.40
2019,11,21,11,57,8.40
2019,11,21,11,58,8.40
2019,11,21,11,59,8.40
2019,11,21,12,00,8.40
2019,11,21,12,01,8.40
2019,11,21,12,02,8.50
2019,11,21,12,03,8.50
2019,11,21,12,04,8.60
2019,11,21,12,05,8.60
2019,11,21,12,06,8.60
2019,11,21,12,07,8.60
2019,11,21,12,08,8.60
2019,11,21,12,09,8.60
2019,11,21,12,10,8.60
2019,11,21,12,11,8.70
2019,11,21,12,12,8.70
2019,11,21,12,13,8.70
2019,11,21,12,14,8.70
2019,11,21,12,15,8.70
2019,11,21,12,16,8.70
2019,11,21,12,17,8.70
2019,11,21,12,18,8.70
2019,11,21,12,19,8.80
2019,11,21,12,20,8.80
2019,11,21,12,21,8.80
2019,11,21,12,22,8.80
2019,11,21,12,23,8.80
2019,11,21,12,24,8.80
2019,11,21,12,25,8.90
2019,11,21,12,26,8.90
2019,11,21,12,27,8.90
2019,11,21,12,28,8.90
2019,11,21,12,29,8.90
2019,11,21,12,30,8.90
2019,11,21,12,31,8.90
2019,11,21,12,32,8.90
2019,11,21,12,33,8.90
2019,11,21,12,34,8.90
2019,11,21,12,35,8.90
2019,11,21,12,36,8.90
2019,11,21,12,37,8.90
2019,11,21,12,38,8.90
2019,11,21,12,39,8.90
2019,11,21,12,40,8.90
2019,11,21,12,41,8.90
2019,11,21,12,42,8.90
2019,11,21,12,43,8.90
2019,11,21,12,44,8.90
2019,11,21,12,45,8.90
2019,11,21,12,46,8.90
2019,11,21,12,47,8.90
2019,11,21,12,48,8.90
2019,11,21,12,49,8.90
2019,11,21,12,50,8.90
2019,11,21,12,51,8.80
2019,11,21,12,52,8.80
2019,11,21,12,53,8.80
2019,11,21,12,54,8.80
2019,11,21,12,55,8.80
2019,11,21,12,56,8.80
2019,11,21,12,57,8.80
2019,11,21,12,58,8.80
2019,11,21,12,59,8.90
2019,11,21,13,00,8.90
2019,11,21,13,01,8.90
2019,11,21,13,02,8.90
2019,11,21,13,03,8.90
2019,11,21,13,04,9.00
2019,11,21,13,05,9.00
2019,11,21,13,06,9.00
2019,11,21,13,07,9.00
2019,11,21,13,08,9.10
2019,11,21,13,09,9.10
2019,11,21,13,10,9.10
2019,11,21,13,11,9.10
2019,11,21,13,12,9.10
2019,11,21,13,13,9.10
2019,11,21,13,14,9.10
2019,11,21,13,15,9.10
2019,11,21,13,16,9.10
2019,11,21,13,17,9.10
2019,11,21,13,18,9.10
2019,11,21,13,19,9.20
2019,11,21,13,20,9.20
2019,11,21,13,21,9.20
2019,11,21,13,22,9.20
2019,11,21,13,23,9.30
2019,11,21,13,24,9.30
2019,11,21,13,25,9.30
2019,11,21,13,26,9.30
2019,11,21,13,27,9.40
2019,11,21,13,28,9.40
2019,11,21,13,29,9.40
2019,11,21,13,30,9.50
2019,11,21,13,31,9.50
2019,11,21,13,32,9.60
2019,11,21,13,33,9.60
2019,11,21,13,34,9.60
2019,11,21,13,35,9.70
2019,11,21,13,36,9.70
2019,11,21,13,37,9.70
2019,11,21,13,38,9.70
2019,11,21,13,39,9.80
2019,11,21,13,40,9.80
2019,11,21,13,41,9.80
2019,11,21,13,42,9.80
2019,11,21,13,43,9.80
2019,11,21,13,44,9.80
2019,11,21,13,45,9.80
2019,11,21,13,46,9.80
2019,11,21,13,47,9.80
2019,11,21,13,48,9.80
2019,11,21,13,49,9.80
2019,11,21,13,50,9.80
2019,11,21,13,51,9.80
2019,11,21,13,52,9.80
2019,11,21,13,53,9.80
2019,11,21,13,54,9.80
2019,11,21,13,55,9.70
2019,11,21,13,56,9.70
2019,11,21,13,57,9.70
2019,11,21,13,58,9.70
2019,11,21,13,59,9.70
2019,11,21,14,00,9.70
2019,11,21,14,01,9.80
2019,11,21,14,02,9.70
2019,11,21,14,03,9.70
2019,11,21,14,04,9.80
2019,11,21,14,05,9.80
2019,11,21,14,06,9.80
2019,11,21,14,07,9.70
2019,11,21,14,08,9.70
2019,11,21,14,09,9.70
2019,11,21,14,10,9.70
2019,11,21,14,11,9.70
2019,11,21,14,12,9.70
2019,11,21,14,13,9.70
2019,11,21,14,14,9.70
2019,11,21,14,15,9.70
2019,11,21,14,16,9.70
2019,11,21,14,17,9.70
2019,11,21,14,18,9.70
2019,11,21,14,19,9.70
2019,11,21,14,20,9.60
2019,11,21,14,21,9.70
2019,11,21,14,22,9.60
2019,11,21,14,23,9.60
2019,11,21,14,24,9.60
2019,11,21,14,25,9.60
2019,11,21,14,26,9.50
2019,11,21,14,27,9.50
2019,11,21,14,28,9.50
2019,11,21,14,29,9.40
2019,11,21,14,30,9.40
2019,11,21,14,31,9.40
2019,11,21,14,32,9.30
2019,11,21,14,33,9.30
2019,11,21,14,34,9.30
2019,11,21,14,35,9.30
2019,11,21,14,36,9.30
2019,11,21,14,37,9.30
2019,11,21,14,38,9.30
2019,11,21,14,39,9.30
2019,11,21,14,40,9.20
2019,11,21,14,41,9.20
2019,11,21,14,42,9.20
2019,11,21,14,43,9.20
2019,11,21,14,44,9.20
2019,11,21,14,45,9.20
2019,11,21,14,46,9.20
2019,11,21,14,47,9.20
2019,11,21,14,48,9.30
2019,11,21,14,49,9.30
2019,11,21,14,50,9.30
2019,11,21,14,51,9.30
2019,11,21,14,52,9.40
2019,11,21,14,53,9.40
2019,11,21,14,54,9.40
2019,11,21,14,55,9.40
2019,11,21,14,56,9.40
2019,11,21,14,57,9.50
2019,11,21,14,58,9.50
2019,11,21,14,59,9.50
2019,11,21,15,00,9.60
2019,11,21,15,01,9.60
2019,11,21,15,02,9.70
2019,11,21,15,03,9.70
2019,11,21,15,04,9.70
2019,11,21,15,05,9.70
2019,11,21,15,06,9.80
2019,11,21,15,07,9.80
2019,11,21,15,08,9.80
2019,11,21,15,09,9.80
2019,11,21,15,10,9.80
2019,11,21,15,11,9.80
2019,11,21,15,12,9.80
2019,11,21,15,13,9.80
2019,11,21,15,14,9.80
2019,11,21,15,15,9.80
2019,11,21,15,16,9.80
2019,11,21,15,17,9.80
2019,11,21,15,18,9.80
2019,11,21,15,19,9.80
2019,11,21,15,20,9.80
2019,11,21,15,21,9.90
2019,11,21,15,22,9.90
2019,11,21,15,23,9.90
2019,11,21,15,24,9.90
2019,11,21,15,25,9.90
2019,11,21,15,26,9.90
2019,11,21,15,27,9.90
2019,11,21,15,28,9.90
2019,11,21,15,29,9.80
2019,11,21,15,30,9.80
2019,11,21,15,31,9.80
2019,11,21,15,32,9.80
2019,11,21,15,33,9.70
2019,11,21,15,34,9.70
2019,11,21,15,35,9.60
2019,11,21,15,36,9.60
2019,11,21,15,37,9.50
2019,11,21,15,38,9.50
2019,11,21,15,39,9.40
2019,11,21,15,40,9.40
2019,11,21,15,41,9.30
2019,11,21,15,42,9.30
2019,11,21,15,43,9.30
2019,11,21,15,44,9.20
2019,11,21,15,45,9.20
2019,11,21,15,46,9.20
2019,11,21,15,47,9.10
2019,11,21,15,48,9.10
2019,11,21,15,49,9.10
2019,11,21,15,50,9.00
2019,11,21,15,51,9.00
2019,11,21,15,52,8.90
2019,11,21,15,53,8.90
2019,11,21,15,54,8.80
2019,11,21,15,55,8.80
2019,11,21,15,56,8.70
2019,11,21,15,57,8.70
2019,11,21,15,58,8.70
2019,11,21,15,59,8.60
2019,11,21,16,00,8.60
2019,11,21,16,01,8.60
2019,11,21,16,02,8.50
2019,11,21,16,03,8.50
2019,11,21,16,04,8.50
2019,11,21,16,05,8.50
2019,11,21,16,06,8.40
2019,11,21,16,07,8.40
2019,11,21,16,08,8.40
2019,11,21,16,09,8.40
2019,11,21,16,10,8.30
2019,11,21,16,11,8.30
2019,11,21,16,12,8.30
2019,11,21,16,13,8.30
2019,11,21,16,14,8.20
2019,11,21,16,15,8.20
2019,11,21,16,16,8.20
2019,11,21,16,17,8.10
2019,11,21,16,18,8.00
2019,11,21,16,19,8.00
2019,11,21,16,20,7.90
2019,11,21,16,21,7.90
2019,11,21,16,22,7.80
2019,11,21,16,23,7.80
2019,11,21,16,24,7.70
2019,11,21,16,25,7.70
2019,11,21,16,26,7.60
2019,11,21,16,27,7.50
2019,11,21,16,28,7.50
2019,11,21,16,29,7.40
2019,11,21,16,30,7.30
2019,11,21,16,31,7.30
2019,11,21,16,32,7.20
2019,11,21,16,33,7.20
2019,11,21,16,34,7.10
2019,11,21,16,35,7.10
2019,11,21,16,36,7.00
2019,11,21,16,37,7.00
2019,11,21,16,38,6.90
2019,11,21,16,39,6.90
2019,11,21,16,40,6.80
2019,11,21,16,41,6.80
2019,11,21,16,42,6.80
2019,11,21,16,43,6.70
2019,11,21,16,44,6.70
2019,11,21,16,45,6.70
2019,11,21,16,46,6.60
2019,11,21,16,47,6.60
2019,11,21,16,48,6.60
2019,11,21,16,49,6.50
2019,11,21,16,50,6.50
2019,11,21,16,51,6.50
2019,11,21,16,52,6.40
2019,11,21,16,53,6.40
2019,11,21,16,54,6.40
2019,11,21,16,55,6.30
2019,11,21,16,56,6.30
2019,11,21,16,57,6.20
2019,11,21,16,58,6.20
2019,11,21,16,59,6.10
2019,11,21,17,00,6.10
2019,11,21,17,01,6.10
2019,11,21,17,02,6.00
2019,11,21,17,03,6.00
2019,11,21,17,04,5.90
2019,11,21,17,05,5.90
2019,11,21,17,06,5.90
2019,11,21,17,07,5.80
2019,11,21,17,08,5.80
2019,11,21,17,09,5.80
2019,11,21,17,10,5.70
2019,11,21,17,11,5.70
2019,11,21,17,12,5.70
2019,11,21,17,13,5.60
2019,11,21,17,14,5.60
2019,11,21,17,15,5.50
2019,11,21,17,16,5.50
2019,11,21,17,17,5.40
2019,11,21,17,18,5.40
2019,11,21,17,19,5.40
2019,11,21,17,20,5.30
2019,11,21,17,21,5.30
2019,11,21,17,22,5.30
2019,11,21,17,23,5.30
2019,11,21,17,24,5.30
2019,11,21,17,25,5.30
2019,11,21,17,26,5.20
2019,11,21,17,27,5.20
2019,11,21,17,28,5.20
2019,11,21,17,29,5.20
2019,11,21,17,30,5.20
2019,11,21,17,31,5.20
2019,11,21,17,32,5.20
2019,11,21,17,33,5.10
2019,11,21,17,34,5.10
2019,11,21,17,35,5.10
2019,11,21,17,36,5.10
2019,11,21,17,37,5.10
2019,11,21,17,38,5.10
2019,11,21,17,39,5.10
2019,11,21,17,40,5.10
2019,11,21,17,41,5.10
2019,11,21,17,42,5.10
2019,11,21,17,43,5.10
2019,11,21,17,44,5.10
2019,11,21,17,45,5.10
2019,11,21,17,46,5.10
2019,11,21,17,47,5.10
2019,11,21,17,48,5.10
2019,11,21,17,49,5.10
2019,11,21,17,50,5.10
2019,11,21,17,51,5.10
2019,11,21,17,52,5.20
2019,11,21,17,53,5.20
2019,11,21,17,54,5.20
2019,11,21,17,55,5.20
2019,11,21,17,56,5.20
2019,11,21,17,57,5.20
2019,11,21,17,58,5.20
2019,11,21,17,59,5.20
2019,11,21,18,00,5.20
2019,11,21,18,01,5.20
2019,11,21,18,02,5.20
2019,11,21,18,03,5.20
2019,11,21,18,04,5.20
2019,11,21,18,05,5.20
2019,11,21,18,06,5.20